Location: *
(46.1006°N, 1.8394°E)
Time: 07:12:59
(UTC+00:00)

Cosmos 1939 Rocket - Pass Details

Date: 20 September 2019
Orbit: 535 x 583 km, 97.4° (Epoch: 22 October)

Event Time Altitude Azimuth Distance (km) Brightness Sun altitude
Rises 18:37:45 0° 162° (SSE) 2,676 6.0 -8.2°
Reaches altitude 10° 18:39:51 10° 161° (SSE) 1,787 5.1 -8.6°
Maximum altitude 18:43:42 76° 76° (ENE) 556 2.7 -9.2°
Drops below altitude 10° 18:47:35 10° 350° (N) 1,802 5.7 -9.9°
Sets 18:49:43 0° 349° (N) 2,700 6.7 -10.2°
